Погода Чапаево

Погода Чапаево : погода сейчас, прогноз погоды и архив. Всё, что Вы хотите узнать о погоде Чапаево!

Поиск расширенной информации на нашем сайте:

Полезная информация: Цена на провод бпдо.

Другие новости

Новости СМИ2

Главная страница сайта

Новости сайта

02.10.2013

Напоминаем, что на нашем новом сайте вы можете получить высокодетализированные прогнозы погоды по пунктам России, СНГ и мира (включающие важные для авиации метеовеличины, такие как направление и скорость ветра, видимость, явления погоды, количество и форма облачности, нижняя и верхняя граница облачности), а также ознакомиться с разнообразными материалами по авиационной метеорологии и подборкой полезных ссылок на эту тему.

Сайт Метеоцентр.Азия посвящён разработке технологий оптимизации авиаметеорологического обслуживания, включая проектирование и перспективное создание нескольких автоматизированных авиаметеорологических систем:
- система выпуска высокодетальных прогностических карт явлений погоды для нижнего воздушного пространства по России и ближнему зарубежью;
- система верификации прогнозов TAF (выпускаемых синоптиками официальных АМСГ РФ и ближнего зарубежья) и AUTOTAF (выпускаемых сайтом Метеоцентр.Азия) - выявление ошибок, онлайн-сопоставление с фактической погодой METAR, автоматическое внесение коррективов в прогнозы при резком отклонении фактической погоды от прогноза, подсчёт оправдываемости прогнозов по элементам и в целом;
- система обработки, анализа и отображения авиаметеорологической информации для применения провайдерами метеорологической информации.

Рекомендуем: Капсулы яблочный уксус - по низким ценам!

Погода Чапаево - сегодня

Время (UTC), дата Ветер
(°,м/с) 
Видим.   Явления Облачность Т
(°С)
Тd
(°С)
f(%) Тe
(°С)
Pmin
(гПа)
dP
(гПа)
Po
(мм)
O2
(г/м3)
Тmin Tmax R s Состояние
почвы
15 25.02.17 230 (ЮЗ) н/о    10/10 600 м 
[Sc]
+1.6 -0.6 85 -1  1008.3  -0.2  755  302    +2.2  0.0     
18 25.02.17 200 (Ю) н/о    10/10 600 м 
[Sc]
+2.2 +0.3 87 -1  1006.7  -1.6  754  301    +2.2  0.0     
21 25.02.17 230 (ЮЗ) 10  н/о  слаб. дождь  10/10 600 м 
[Ns]
+3 +1.2 88 -1  1005.1  -1.6  752  300           
00 26.02.17 230 (ЮЗ) 10  н/о  слаб. дождь  10/10 600 м 
[Ns]
+3 +1.4 89 -1  1003.6  -1.5  751  299           
03 26.02.17 320 (СЗ) н/о  слаб. снег{дождь}  10/10 600 м 
[Ns]
+0.6 -0.2 94 -1  1004.8  1.2  752  302      23  равномерный
мокрый или
старый снег
100% 
06 26.02.17 320 (СЗ) 20000 м  в посл. час снег  10/10 600 м 
[Ns]
-0.7 -1.7 93 -4  1008.4  3.6  755  305  +0.6       
09 26.02.17 320 (СЗ) 20000 м    8/0 средняя 
[Ac lent]
-2.3 -3.2 94 -6  1011.2  2.8  757  308           
12 26.02.17 290 (З) 20000 м    1/0 верхняя 
[Ci fib]
-1.6 -3.7 86 -5  1013.1  1.9  758  308           
15 26.02.17 290 (З) н/о    ясно 
-4 -5.5 89 -8  1014.9  1.7  760  311    +0.6     
18 26.02.17 290 (З) н/о    ясно 
-5.8 -7.3 89 -10  1016.6  1.7  761  314    +0.6     
21 26.02.17 270 (З) н/о    9/9 600 м 
[Sc]
-3.4 -5.5 85 -8  1017.5  0.9  762  311           
00 27.02.17 320 (СЗ) н/о    ясно 
-6.5 -8.5 86 -11  1018.5  762  316           
03 27.02.17 290 (З) н/о    4/0 средняя, верхняя 
[As op|Ci]
-10.4 -11.7 90 -14  1020.3  1.8  764  321        24  равномерный
мокрый или
старый снег
100% 
06 27.02.17 250 (З) 20000 м    ясно 
-7 -10.4 77 -11  1021.6  1.3  765  317  -10.4         
09 27.02.17 250 (З) 20000 м    ясно 
-1.8 -6 73 -6  1021.6  0.1  765  311           
12 27.02.17 230 (ЮЗ) 20000 м    4/0 верхняя 
[Ci fib]
+0 -3.4 78 -4  1020.8  -0.8  764  308           
15 27.02.17 200 (Ю) н/о    8/0 средняя 
[Ac und]
-2.8 -5.5 82 -7  1020.5  -0.4  764  312    +0.2       
18 27.02.17 200 (Ю) н/о    10/10 600 м 
[Sc]
-0.7 -3.5 81 -4  1020.5  0.1  764  309    +0.2       
21 27.02.17 200 (Ю) н/о    10/10 600 м 
[Sc]
-0.8 -3.7 81 -4  1020.1  -0.4  764  309           
00 28.02.17 200 (Ю) н/о  слаб. снег  10/10 600 м 
[Ns]
-0.2 -1.7 90 -4  1019.9  -0.2  764  308           
03 28.02.17 200 (Ю) н/о  слаб. снег  10/10 600 м 
[Ns]
-0.2 -1.1 94 -4  1019.2  -0.7  763  308      0.6  26  равномерный
сухой снег
100% 
06 28.02.17 230 (ЮЗ) 10 км  слаб. снег  10/10 600 м 
[Ns]
+0.2 -1 92 -4  1020.2  764  308  -2.8    0.6     
09 28.02.17 250 (З) 4000 м  дымка{снег}  10/10 600 м 
[St]
+0.5 -0.7 92 -3  1020.5  0.3  764  307           
12 28.02.17 270 (З) 20000 м  {снег}  10/10 600 м 
[St]
+0.6 -0.8 90 -2  1021  0.5  764  307           
15 28.02.17 270 (З) н/о    10/10 600 м 
[St]
+0.5 -1 90 -1  1021.9  0.9  765  308    +0.7  0.4     
Время (UTC), дата Ветер
(°,м/с) 
Видим.   Явления Облачность Т
(°С)
Тd
(°С)
f(%) Тe
(°С)
Pmin
(гПа)
dP
(гПа)
Po
(мм)
O2
(г/м3)
Тmin Tmax R s Состояние
почвы

Для получения пояснительной информации подведите курсор к названию столбца.

ПОГОДА Чапаево - архив

Всё, что Вы хотите узнать о погоде Чапаево - удобно и подробно!

Выберите нужную дату (начиная с 1 января 2015* года) и нажмите кнопку "Найти".
Будут отображены архивные сводки погоды по пункту Чапаево, начиная с указанной даты.


Отображать данные в формате CSV (для использования в таблицах Excel)


Внимание! Наш архив погоды предназначен исключительно для личного некоммерческого использования в познавательных целях. Если Вам необходимы официальные справки о состоянии погоды (для производственных, юридических, коммерческих и т.п. целей), обращайтесь в органы Росгидромета.

*Примечание: данная дата относится к архиву по метеостанциям СССР (Россия, СНГ, Балтия).
Архив по метеостанциям Зарубежной Европы и Азии (кроме Китая) хранится 10 дней, по другим регионам земного шара (Китай, Африка, Америка, Австралия, Океания) - 1 день.

Чапаево - район местоположения метеостанции


Название, широта, долгота, высота метеостанции:
Чапаево 50.2°ш. 51.2°д. 17 м над ур. моря [Казахстан]

Дополнительная информация

В oтличие oт бoльшинства пoгoдных сайтoв мы публикуем пoдрoбную метеoинфoрмацию в детальнoм прoфессиoнальнoм фoрмате.

Характеристики температуры и влажнoсти вoздуха измеряются на высoте 2 м в тени вдали oт зданий и деревьев.
Скoрoсть ветра измеряется на высoте 10 м (на урoвне рoста челoвека скoрoсть ветра ниже в 1.5-2 раза). Если метеoстанция нахoдится в гoрoде или в лесу, тo скoрoсть ветра занижена на 2-4 м/с пo сравнению с oткрытым местoм. Скoрoсть ветра над акватoриями крупных рек и oзёр, а также на вершинах хoлмoв на 2-5 м/с выше, чем в oбычных услoвиях.
Атмoсфернoе давление в разных тoчках местнoсти мoжет значительнo oтличаться oт давления на метеoстанции, в зависимoсти oт услoвий рельефа (при пoдъёме на 10 м давление пoнижается примернo на 1 мм рт.ст.).